TimeEST,TemperatureF,Dew PointF,Humidity,Sea Level PressureIn,VisibilityMPH,Wind Direction,Wind SpeedMPH,Gust SpeedMPH,PrecipitationIn,Events,Conditions,WindDirDegrees,DateUTC
12:15 AM,39.2,37.4,93,30.22,10.0,Calm,Calm,-,N/A,,Clear,0,2012-12-20 05:15:00
12:35 AM,39.2,37.4,93,30.22,10.0,Calm,Calm,-,N/A,,Clear,0,2012-12-20 05:35:00
12:55 AM,39.2,35.6,87,30.22,10.0,Calm,Calm,-,N/A,,Clear,0,2012-12-20 05:55:00
1:15 AM,39.2,35.6,87,30.21,10.0,Calm,Calm,-,N/A,,Clear,0,2012-12-20 06:15:00
1:35 AM,39.2,35.6,87,30.22,10.0,Calm,Calm,-,N/A,,Clear,0,2012-12-20 06:35:00
1:55 AM,37.4,35.6,93,30.22,10.0,Calm,Calm,-,N/A,,Clear,0,2012-12-20 06:55:00
2:15 AM,37.4,35.6,93,30.23,10.0,Calm,Calm,-,N/A,,Clear,0,2012-12-20 07:15:00
2:35 AM,37.4,35.6,93,30.23,10.0,Calm,Calm,-,N/A,,Clear,0,2012-12-20 07:35:00
2:55 AM,37.4,35.6,93,30.23,10.0,Calm,Calm,-,N/A,,Clear,0,2012-12-20 07:55:00
3:15 AM,35.6,35.6,100,30.22,10.0,Calm,Calm,-,N/A,,Clear,0,2012-12-20 08:15:00
3:35 AM,35.6,33.8,93,30.22,10.0,Calm,Calm,-,N/A,,Clear,0,2012-12-20 08:35:00
3:55 AM,33.8,33.8,100,30.23,10.0,Calm,Calm,-,N/A,,Clear,0,2012-12-20 08:55:00
4:15 AM,33.8,33.8,100,30.23,10.0,Calm,Calm,-,N/A,,Clear,0,2012-12-20 09:15:00
4:35 AM,33.8,33.8,100,30.23,10.0,Calm,Calm,-,N/A,,Clear,0,2012-12-20 09:35:00
4:55 AM,33.8,33.8,100,30.23,10.0,Calm,Calm,-,N/A,,Clear,0,2012-12-20 09:55:00
5:15 AM,33.8,33.8,100,30.23,10.0,Calm,Calm,-,N/A,,Clear,0,2012-12-20 10:15:00
5:35 AM,32.0,32.0,100,30.23,10.0,Calm,Calm,-,N/A,,Clear,0,2012-12-20 10:35:00
5:55 AM,33.8,33.8,100,30.23,10.0,Calm,Calm,-,N/A,,Clear,0,2012-12-20 10:55:00
6:15 AM,33.8,33.8,100,30.24,10.0,Calm,Calm,-,N/A,,Clear,0,2012-12-20 11:15:00
6:35 AM,30.2,30.2,100,30.24,10.0,Calm,Calm,-,N/A,,Clear,0,2012-12-20 11:35:00
6:55 AM,32.0,30.2,93,30.23,7.0,Calm,Calm,-,N/A,,Clear,0,2012-12-20 11:55:00
7:15 AM,32.0,32.0,100,30.22,7.0,Calm,Calm,-,N/A,,Clear,0,2012-12-20 12:15:00
7:35 AM,33.8,33.8,100,30.22,7.0,Calm,Calm,-,N/A,,Clear,0,2012-12-20 12:35:00
7:55 AM,35.6,35.6,100,30.21,10.0,Calm,Calm,-,N/A,,Clear,0,2012-12-20 12:55:00
8:15 AM,35.6,35.6,100,30.21,10.0,Calm,Calm,-,N/A,,Clear,0,2012-12-20 13:15:00
8:35 AM,35.6,35.6,100,30.20,7.0,Calm,Calm,-,N/A,,Clear,0,2012-12-20 13:35:00
8:55 AM,37.4,37.4,100,30.20,10.0,Calm,Calm,-,N/A,,Clear,0,2012-12-20 13:55:00
9:15 AM,39.2,39.2,100,30.20,10.0,Calm,Calm,-,N/A,,Clear,0,2012-12-20 14:15:00
9:35 AM,44.6,39.2,81,30.19,10.0,Calm,Calm,-,N/A,,Clear,0,2012-12-20 14:35:00
9:55 AM,44.6,37.4,76,30.18,10.0,SE,3.5,-,N/A,,Clear,130,2012-12-20 14:55:00
10:15 AM,46.4,37.4,71,30.17,10.0,ESE,4.6,-,N/A,,Clear,120,2012-12-20 15:15:00
10:35 AM,46.4,37.4,71,30.16,10.0,East,6.9,-,N/A,,Clear,90,2012-12-20 15:35:00
10:55 AM,48.2,39.2,71,30.16,10.0,ESE,6.9,-,N/A,,Clear,120,2012-12-20 15:55:00
11:15 AM,48.2,39.2,71,30.13,10.0,SE,6.9,-,N/A,,Clear,140,2012-12-20 16:15:00
11:35 AM,51.8,39.2,62,30.12,10.0,SE,5.8,-,N/A,,Clear,140,2012-12-20 16:35:00
11:55 AM,53.6,39.2,58,30.13,10.0,SSE,8.1,-,N/A,,Clear,150,2012-12-20 16:55:00
12:15 PM,51.8,37.4,58,30.10,10.0,SE,5.8,-,N/A,,Scattered Clouds,140,2012-12-20 17:15:00
12:35 PM,51.8,39.2,62,30.09,10.0,SSE,6.9,-,N/A,,Clear,160,2012-12-20 17:35:00
12:55 PM,53.6,39.2,58,30.08,10.0,ESE,5.8,-,N/A,,Clear,120,2012-12-20 17:55:00
1:15 PM,53.6,41.0,62,30.07,10.0,SE,6.9,-,N/A,,Clear,130,2012-12-20 18:15:00
1:35 PM,53.6,41.0,62,30.04,10.0,ESE,4.6,-,N/A,,Clear,110,2012-12-20 18:35:00
1:55 PM,51.8,41.0,67,30.03,10.0,Calm,Calm,-,N/A,,Clear,0,2012-12-20 18:55:00
2:15 PM,51.8,42.8,71,30.02,10.0,SE,3.5,-,N/A,,Clear,130,2012-12-20 19:15:00
2:35 PM,51.8,42.8,71,30.01,10.0,Calm,Calm,-,N/A,,Clear,0,2012-12-20 19:35:00
2:55 PM,51.8,42.8,71,30.00,10.0,Calm,Calm,-,N/A,,Clear,0,2012-12-20 19:55:00
3:15 PM,51.8,42.8,71,29.98,10.0,Calm,Calm,-,N/A,,Clear,0,2012-12-20 20:15:00
3:35 PM,51.8,42.8,71,29.98,10.0,Calm,Calm,-,N/A,,Clear,0,2012-12-20 20:35:00
3:55 PM,51.8,42.8,71,29.96,10.0,Calm,Calm,-,N/A,,Scattered Clouds,0,2012-12-20 20:55:00
4:15 PM,51.8,42.8,71,29.95,10.0,Calm,Calm,-,N/A,,Mostly Cloudy,0,2012-12-20 21:15:00
4:35 PM,50.0,42.8,76,29.94,10.0,Calm,Calm,-,N/A,,Mostly Cloudy,0,2012-12-20 21:35:00
4:55 PM,50.0,44.6,82,29.90,10.0,East,3.5,-,N/A,,Overcast,80,2012-12-20 21:55:00
5:15 PM,50.0,44.6,82,29.89,10.0,ESE,4.6,-,N/A,,Overcast,110,2012-12-20 22:15:00
5:35 PM,50.0,44.6,82,29.88,10.0,East,4.6,-,N/A,,Overcast,100,2012-12-20 22:35:00
5:55 PM,50.0,44.6,82,29.85,10.0,ESE,4.6,-,N/A,Rain,Light Rain,110,2012-12-20 22:55:00
6:15 PM,48.2,46.4,93,29.84,10.0,ESE,4.6,-,N/A,,Drizzle,110,2012-12-20 23:15:00
6:35 PM,48.2,46.4,93,29.83,10.0,ESE,5.8,-,N/A,Rain,Light Rain,120,2012-12-20 23:35:00
6:55 PM,48.2,46.4,93,29.81,10.0,ESE,5.8,-,N/A,,Overcast,120,2012-12-20 23:55:00
7:15 PM,48.2,46.4,93,29.79,10.0,SSE,6.9,-,N/A,Rain,Light Rain,150,2012-12-21 00:15:00
7:35 PM,50.0,48.2,94,29.77,10.0,SE,6.9,-,N/A,Rain,Rain,140,2012-12-21 00:35:00
7:55 PM,50.0,48.2,94,29.75,10.0,SE,5.8,16.1,N/A,Rain,Rain,140,2012-12-21 00:55:00
8:15 PM,50.0,50.0,100,29.72,10.0,SE,6.9,-,0.02,Rain,Rain,130,2012-12-21 01:15:00
8:35 PM,51.8,51.8,100,29.69,10.0,SE,6.9,-,0.05,Rain,Light Rain,140,2012-12-21 01:35:00
8:55 PM,51.8,51.8,100,29.66,10.0,SE,8.1,-,N/A,,Drizzle,140,2012-12-21 01:55:00
9:15 PM,51.8,51.8,100,29.61,10.0,ESE,8.1,-,0.02,Rain,Light Rain,120,2012-12-21 02:15:00
9:35 PM,53.6,53.6,100,29.58,10.0,SE,11.5,19.6,0.03,Rain,Light Rain,140,2012-12-21 02:35:00
9:55 PM,55.4,55.4,100,29.56,10.0,SSE,10.4,19.6,0.01,Rain,Rain,150,2012-12-21 02:55:00
10:15 PM,55.4,55.4,100,29.55,10.0,SSE,16.1,23.0,0.03,Rain,Light Rain,160,2012-12-21 03:15:00
10:35 PM,57.2,57.2,100,29.53,10.0,SSE,15.0,25.3,0.03,Rain,Light Rain,160,2012-12-21 03:35:00
10:55 PM,57.2,57.2,100,29.51,7.0,South,18.4,25.3,0.01,Rain,Light Rain,170,2012-12-21 03:55:00
11:15 PM,57.2,57.2,100,29.50,7.0,South,16.1,26.5,0.02,,Drizzle,170,2012-12-21 04:15:00
11:35 PM,57.2,57.2,100,29.47,7.0,SSE,13.8,18.4,0.09,Rain,Heavy Rain,160,2012-12-21 04:35:00
11:55 PM,59.0,59.0,100,29.45,10.0,South,16.1,21.9,0.02,Rain,Rain,170,2012-12-21 04:55:00